Time,TemperatureF,DewpointF,PressureIn,WindDirection,WindDirectionDegrees,WindSpeedMPH,WindSpeedGustMPH,Humidity,HourlyPrecipIn,Conditions,Clouds,dailyrainin,SolarRadiationWatts/m^2,SoftwareType,DateUTC
2013-02-15 00:00:00,37.2,32.2,30.04,SW,223,0.0,1.0,82,0.00,,,0.00,1624.00,VWS V14.01,2013-02-15 05:00:00,
2013-02-15 00:05:00,37.1,32.1,30.04,SSW,196,0.0,1.0,82,0.00,,,0.00,1622.00,VWS V14.01,2013-02-15 05:05:00,
2013-02-15 00:10:00,37.0,32.0,30.04,South,190,0.0,0.0,82,0.00,,,0.00,1622.00,VWS V14.01,2013-02-15 05:10:00,
2013-02-15 00:15:00,37.0,32.0,30.04,South,190,0.0,0.0,82,0.00,,,0.00,1622.00,VWS V14.01,2013-02-15 05:15:00,
2013-02-15 00:20:00,36.9,31.9,30.04,South,190,0.0,0.0,82,0.00,,,0.00,1621.00,VWS V14.01,2013-02-15 05:20:00,
2013-02-15 00:25:00,36.8,32.1,30.05,South,190,0.0,0.0,83,0.00,,,0.00,1622.00,VWS V14.01,2013-02-15 05:25:00,
2013-02-15 00:30:00,36.7,32.0,30.05,South,190,0.0,0.0,83,0.00,,,0.00,1621.00,VWS V14.01,2013-02-15 05:30:00,
2013-02-15 00:35:00,36.6,31.9,30.05,South,190,0.0,0.0,83,0.00,,,0.00,1621.00,VWS V14.01,2013-02-15 05:35:00,
2013-02-15 00:40:00,36.5,32.1,30.05,South,190,0.0,0.0,84,0.00,,,0.00,1619.00,VWS V14.01,2013-02-15 05:40:00,
2013-02-15 00:45:00,36.5,32.1,30.05,South,190,0.0,0.0,84,0.00,,,0.00,1621.00,VWS V14.01,2013-02-15 05:45:00,
2013-02-15 00:50:00,36.4,32.0,30.06,South,190,0.0,1.0,84,0.00,,,0.00,1621.00,VWS V14.01,2013-02-15 05:50:00,
2013-02-15 00:55:00,36.3,31.9,30.06,South,190,0.0,0.0,84,0.00,,,0.00,1619.00,VWS V14.01,2013-02-15 05:55:00,
2013-02-15 01:00:00,36.1,31.7,30.06,South,190,1.0,1.0,84,0.00,,,0.00,1617.00,VWS V14.01,2013-02-15 06:00:00,
2013-02-15 01:05:00,35.9,31.5,30.06,South,190,0.0,0.0,84,0.00,,,0.00,1615.00,VWS V14.01,2013-02-15 06:05:00,
2013-02-15 01:10:00,35.7,31.6,30.06,South,190,0.0,0.0,85,0.00,,,0.00,1614.00,VWS V14.01,2013-02-15 06:10:00,
2013-02-15 01:15:00,35.6,31.5,30.06,South,190,0.0,0.0,85,0.00,,,0.00,1612.00,VWS V14.01,2013-02-15 06:15:00,
2013-02-15 01:20:00,35.6,31.8,30.06,South,190,0.0,0.0,86,0.00,,,0.00,1612.00,VWS V14.01,2013-02-15 06:20:00,
2013-02-15 01:25:00,35.6,31.8,30.05,West,264,0.0,0.0,86,0.00,,,0.00,1612.00,VWS V14.01,2013-02-15 06:25:00,
2013-02-15 01:30:00,35.6,31.8,30.06,West,264,0.0,1.0,86,0.00,,,0.00,1614.00,VWS V14.01,2013-02-15 06:30:00,
2013-02-15 01:35:00,35.7,31.9,30.06,West,264,0.0,0.0,86,0.00,,,0.00,1612.00,VWS V14.01,2013-02-15 06:35:00,
2013-02-15 01:40:00,35.7,31.9,30.06,West,264,0.0,0.0,86,0.00,,,0.00,1612.00,VWS V14.01,2013-02-15 06:40:00,
2013-02-15 01:45:00,35.7,31.9,30.06,West,264,0.0,0.0,86,0.00,,,0.00,1612.00,VWS V14.01,2013-02-15 06:45:00,
2013-02-15 01:50:00,35.8,32.3,30.05,West,264,0.0,0.0,87,0.00,,,0.00,1612.00,VWS V14.01,2013-02-15 06:50:00,
2013-02-15 01:55:00,35.9,32.4,30.05,WSW,242,0.0,2.0,87,0.00,,,0.00,1615.00,VWS V14.01,2013-02-15 06:55:00,
2013-02-15 02:00:00,36.1,32.9,30.05,SW,231,0.0,0.0,88,0.00,,,0.00,1614.00,VWS V14.01,2013-02-15 07:00:00,
2013-02-15 02:05:00,36.3,32.8,30.05,SW,231,0.0,0.0,87,0.00,,,0.00,1619.00,VWS V14.01,2013-02-15 07:05:00,
2013-02-15 02:10:00,36.3,32.8,30.05,SW,231,0.0,0.0,87,0.00,,,0.00,1619.00,VWS V14.01,2013-02-15 07:10:00,
2013-02-15 02:15:00,36.3,32.8,30.05,SW,231,0.0,0.0,87,0.00,,,0.00,1617.00,VWS V14.01,2013-02-15 07:15:00,
2013-02-15 02:20:00,36.1,32.3,30.05,SW,231,0.0,0.0,86,0.00,,,0.00,1614.00,VWS V14.01,2013-02-15 07:20:00,
2013-02-15 02:25:00,35.9,32.1,30.05,SW,231,0.0,0.0,86,0.00,,,0.00,1610.00,VWS V14.01,2013-02-15 07:25:00,
2013-02-15 02:30:00,35.6,31.8,30.05,SW,231,0.0,0.0,86,0.00,,,0.00,1608.00,VWS V14.01,2013-02-15 07:30:00,
2013-02-15 02:35:00,35.4,32.2,30.04,SW,231,0.0,0.0,88,0.00,,,0.00,1607.00,VWS V14.01,2013-02-15 07:35:00,
2013-02-15 02:40:00,35.3,32.1,30.05,SW,231,0.0,0.0,88,0.00,,,0.00,1607.00,VWS V14.01,2013-02-15 07:40:00,
2013-02-15 02:45:00,35.1,31.6,30.05,SW,231,0.0,0.0,87,0.00,,,0.00,1607.00,VWS V14.01,2013-02-15 07:45:00,
2013-02-15 02:50:00,34.7,31.2,30.04,SW,231,0.0,0.0,87,0.00,,,0.00,1601.00,VWS V14.01,2013-02-15 07:50:00,
2013-02-15 02:55:00,34.4,30.9,30.04,SW,231,0.0,0.0,87,0.00,,,0.00,1596.00,VWS V14.01,2013-02-15 07:55:00,
2013-02-15 03:00:00,34.2,31.0,30.04,SW,231,0.0,0.0,88,0.00,,,0.00,1593.00,VWS V14.01,2013-02-15 08:00:00,
2013-02-15 03:05:00,34.0,31.1,30.04,SW,231,0.0,0.0,89,0.00,,,0.00,1594.00,VWS V14.01,2013-02-15 08:05:00,
2013-02-15 03:10:00,33.9,31.3,30.04,SW,231,0.0,0.0,90,0.00,,,0.00,1593.00,VWS V14.01,2013-02-15 08:10:00,
2013-02-15 03:15:00,33.9,31.3,30.04,SW,231,0.0,0.0,90,0.00,,,0.00,1593.00,VWS V14.01,2013-02-15 08:15:00,
2013-02-15 03:20:00,34.2,31.9,30.04,SW,231,0.0,0.0,91,0.00,,,0.00,1596.00,VWS V14.01,2013-02-15 08:20:00,
2013-02-15 03:25:00,34.9,32.8,30.04,West,274,0.0,0.0,92,0.00,,,0.00,1601.00,VWS V14.01,2013-02-15 08:25:00,
2013-02-15 03:30:00,35.3,32.9,30.04,West,274,0.0,1.0,91,0.00,,,0.00,1605.00,VWS V14.01,2013-02-15 08:30:00,
2013-02-15 03:35:00,35.7,33.3,30.03,West,273,1.0,2.0,91,0.00,,,0.00,1608.00,VWS V14.01,2013-02-15 08:35:00,
2013-02-15 03:40:00,36.2,33.6,30.04,West,267,0.0,1.0,90,0.00,,,0.00,1614.00,VWS V14.01,2013-02-15 08:40:00,
2013-02-15 03:45:00,36.5,33.8,30.04,West,267,0.0,0.0,90,0.00,,,0.00,1617.00,VWS V14.01,2013-02-15 08:45:00,
2013-02-15 03:50:00,36.8,33.9,30.04,West,267,0.0,1.0,89,0.00,,,0.00,1619.00,VWS V14.01,2013-02-15 08:50:00,
2013-02-15 03:55:00,36.9,34.0,30.04,West,267,0.0,0.0,89,0.00,,,0.00,1621.00,VWS V14.01,2013-02-15 08:55:00,
2013-02-15 04:00:00,37.0,34.1,30.04,West,267,0.0,0.0,89,0.00,,,0.00,1621.00,VWS V14.01,2013-02-15 09:00:00,
2013-02-15 04:05:00,37.3,34.1,30.04,WSW,238,0.0,0.0,88,0.00,,,0.00,1624.00,VWS V14.01,2013-02-15 09:05:00,
2013-02-15 04:10:00,37.5,34.3,30.04,West,266,1.0,1.0,88,0.00,,,0.00,1626.00,VWS V14.01,2013-02-15 09:10:00,
2013-02-15 04:15:00,37.6,34.4,30.03,SW,235,1.0,1.0,88,0.00,,,0.00,1626.00,VWS V14.01,2013-02-15 09:15:00,
2013-02-15 04:20:00,37.7,34.2,30.04,West,266,0.0,0.0,87,0.00,,,0.00,1628.00,VWS V14.01,2013-02-15 09:20:00,
2013-02-15 04:25:00,37.7,34.2,30.04,West,266,0.0,0.0,87,0.00,,,0.00,1626.00,VWS V14.01,2013-02-15 09:25:00,
2013-02-15 04:30:00,37.6,34.1,30.04,West,266,0.0,2.0,87,0.00,,,0.00,1622.00,VWS V14.01,2013-02-15 09:30:00,
2013-02-15 04:35:00,37.4,33.9,30.04,West,266,0.0,0.0,87,0.00,,,0.00,1622.00,VWS V14.01,2013-02-15 09:35:00,
2013-02-15 04:40:00,37.0,33.2,30.04,West,266,1.0,2.0,86,0.00,,,0.00,1617.00,VWS V14.01,2013-02-15 09:40:00,
2013-02-15 04:45:00,36.6,34.5,30.04,West,266,0.0,0.0,92,0.00,,,0.00,1614.00,VWS V14.01,2013-02-15 09:45:00,
2013-02-15 04:50:00,36.4,33.2,30.04,West,266,0.0,1.0,88,0.00,,,0.00,1612.00,VWS V14.01,2013-02-15 09:50:00,
2013-02-15 04:55:00,36.3,33.1,30.04,West,266,0.0,0.0,88,0.00,,,0.00,1612.00,VWS V14.01,2013-02-15 09:55:00,
2013-02-15 05:00:00,36.2,33.3,30.04,SW,236,0.0,1.0,89,0.00,,,0.00,1614.00,VWS V14.01,2013-02-15 10:00:00,
2013-02-15 05:05:00,36.3,33.7,30.04,WSW,240,2.0,2.0,90,0.00,,,0.00,1614.00,VWS V14.01,2013-02-15 10:05:00,
2013-02-15 05:10:00,36.6,34.0,30.04,WNW,289,1.0,1.0,90,0.00,,,0.00,1617.00,VWS V14.01,2013-02-15 10:10:00,
2013-02-15 05:15:00,36.8,33.9,30.04,WNW,289,1.0,1.0,89,0.00,,,0.00,1619.00,VWS V14.01,2013-02-15 10:15:00,
2013-02-15 05:20:00,37.0,34.1,30.04,West,281,1.0,1.0,89,0.00,,,0.00,1621.00,VWS V14.01,2013-02-15 10:20:00,
2013-02-15 05:25:00,37.2,34.3,30.04,West,266,0.0,0.0,89,0.00,,,0.00,1622.00,VWS V14.01,2013-02-15 10:25:00,
2013-02-15 05:30:00,37.3,34.4,30.04,West,266,1.0,1.0,89,0.00,,,0.00,1624.00,VWS V14.01,2013-02-15 10:30:00,
2013-02-15 05:35:00,37.4,34.2,30.04,WSW,257,3.0,3.0,88,0.00,,,0.00,1626.00,VWS V14.01,2013-02-15 10:35:00,
2013-02-15 05:40:00,37.5,34.3,30.04,WSW,247,4.0,4.0,88,0.00,,,0.00,1626.00,VWS V14.01,2013-02-15 10:40:00,
2013-02-15 05:45:00,37.6,34.4,30.04,West,259,2.0,3.0,88,0.00,,,0.00,1626.00,VWS V14.01,2013-02-15 10:45:00,
2013-02-15 05:50:00,37.7,34.5,30.04,West,267,2.0,4.0,88,0.00,,,0.00,1631.00,VWS V14.01,2013-02-15 10:50:00,
2013-02-15 05:55:00,37.9,34.7,30.04,West,261,3.0,4.0,88,0.00,,,0.00,1631.00,VWS V14.01,2013-02-15 10:55:00,
2013-02-15 06:00:00,38.0,34.5,30.04,West,274,3.0,3.0,87,0.00,,,0.00,1635.00,VWS V14.01,2013-02-15 11:00:00,
2013-02-15 06:05:00,38.1,34.6,30.04,WSW,257,2.0,3.0,87,0.00,,,0.00,1633.00,VWS V14.01,2013-02-15 11:05:00,
2013-02-15 06:10:00,38.1,34.6,30.04,WNW,288,1.0,2.0,87,0.00,,,0.00,1633.00,VWS V14.01,2013-02-15 11:10:00,
2013-02-15 06:15:00,38.0,34.2,30.04,West,281,0.0,0.0,86,0.00,,,0.00,1633.00,VWS V14.01,2013-02-15 11:15:00,
2013-02-15 06:20:00,37.6,33.5,30.04,West,281,0.0,0.0,85,0.00,,,0.00,1628.00,VWS V14.01,2013-02-15 11:20:00,
2013-02-15 06:25:00,36.8,32.4,30.05,West,281,0.0,0.0,84,0.00,,,0.00,1619.00,VWS V14.01,2013-02-15 11:25:00,
2013-02-15 06:30:00,36.0,31.6,30.05,West,281,0.0,0.0,84,0.00,,,0.00,1608.00,VWS V14.01,2013-02-15 11:30:00,
2013-02-15 06:35:00,35.3,31.0,30.05,West,281,0.0,0.0,84,0.00,,,0.00,1598.00,VWS V14.01,2013-02-15 11:35:00,
2013-02-15 06:40:00,34.7,31.0,30.05,West,281,1.0,1.0,86,0.00,,,0.00,1593.00,VWS V14.01,2013-02-15 11:40:00,
2013-02-15 06:45:00,34.4,31.2,30.05,West,281,0.0,0.0,88,0.00,,,0.00,1587.00,VWS V14.01,2013-02-15 11:45:00,
2013-02-15 06:50:00,34.3,31.7,30.05,West,281,0.0,0.0,90,0.00,,,0.00,1579.00,VWS V14.01,2013-02-15 11:50:00,
2013-02-15 06:55:00,34.2,31.6,30.05,West,281,0.0,0.0,90,0.00,,,0.00,1571.00,VWS V14.01,2013-02-15 11:55:00,
2013-02-15 07:00:00,34.1,31.5,30.05,West,281,0.0,0.0,90,0.00,,,0.00,1557.00,VWS V14.01,2013-02-15 12:00:00,
2013-02-15 07:05:00,33.8,30.9,30.05,West,281,0.0,0.0,89,0.00,,,0.00,1545.00,VWS V14.01,2013-02-15 12:05:00,
2013-02-15 07:10:00,33.4,30.5,30.05,West,281,0.0,0.0,89,0.00,,,0.00,1536.00,VWS V14.01,2013-02-15 12:10:00,
2013-02-15 07:15:00,33.1,30.2,30.05,SW,236,2.0,4.0,89,0.00,,,0.00,1526.00,VWS V14.01,2013-02-15 12:15:00,
2013-02-15 07:20:00,33.2,30.9,30.05,SW,236,0.0,0.0,91,0.00,,,0.00,1526.00,VWS V14.01,2013-02-15 12:20:00,
2013-02-15 07:25:00,32.9,30.3,30.05,SW,236,0.0,0.0,90,0.00,,,0.00,1522.00,VWS V14.01,2013-02-15 12:25:00,
2013-02-15 07:30:00,32.5,29.9,30.06,SW,236,0.0,0.0,90,0.00,,,0.00,1515.00,VWS V14.01,2013-02-15 12:30:00,
2013-02-15 07:35:00,32.2,29.6,30.06,SW,236,0.0,0.0,90,0.00,,,0.00,1501.00,VWS V14.01,2013-02-15 12:35:00,
2013-02-15 07:40:00,32.1,29.8,30.06,SW,236,0.0,0.0,91,0.00,,,0.00,1505.00,VWS V14.01,2013-02-15 12:40:00,
2013-02-15 07:45:00,32.1,30.0,30.06,SW,236,0.0,0.0,92,0.00,,,0.00,1498.00,VWS V14.01,2013-02-15 12:45:00,
2013-02-15 07:50:00,32.2,30.1,30.07,SW,236,0.0,0.0,92,0.00,,,0.00,1496.00,VWS V14.01,2013-02-15 12:50:00,
2013-02-15 07:55:00,32.4,30.6,30.07,SW,236,0.0,0.0,93,0.00,,,0.00,1505.00,VWS V14.01,2013-02-15 12:55:00,
2013-02-15 08:00:00,32.6,30.8,30.06,SW,236,0.0,0.0,93,0.00,,,0.00,1501.00,VWS V14.01,2013-02-15 13:00:00,
2013-02-15 08:05:00,32.9,31.4,30.07,SW,236,1.0,1.0,94,0.00,,,0.00,1492.00,VWS V14.01,2013-02-15 13:05:00,
2013-02-15 08:10:00,33.7,32.2,30.07,SW,236,0.0,0.0,94,0.00,,,0.00,1496.00,VWS V14.01,2013-02-15 13:10:00,
2013-02-15 08:15:00,34.6,33.3,30.08,WSW,246,1.0,2.0,95,0.00,,,0.00,1519.00,VWS V14.01,2013-02-15 13:15:00,
2013-02-15 08:20:00,35.8,34.5,30.08,West,273,2.0,4.0,95,0.00,,,0.00,1535.00,VWS V14.01,2013-02-15 13:20:00,
2013-02-15 08:25:00,36.9,35.1,30.08,West,277,0.0,0.0,93,0.00,,,0.00,1531.00,VWS V14.01,2013-02-15 13:25:00,
2013-02-15 08:30:00,37.6,35.2,30.08,WSW,246,0.0,0.0,91,0.00,,,0.00,1542.00,VWS V14.01,2013-02-15 13:30:00,
2013-02-15 08:35:00,38.1,35.4,30.08,WSW,246,1.0,1.0,90,0.00,,,0.00,1533.00,VWS V14.01,2013-02-15 13:35:00,
2013-02-15 08:40:00,38.7,35.5,30.08,WSW,246,0.0,0.0,88,0.00,,,0.00,1531.00,VWS V14.01,2013-02-15 13:40:00,
2013-02-15 08:45:00,39.3,35.8,30.08,WSW,246,0.0,0.0,87,0.00,,,0.00,1542.00,VWS V14.01,2013-02-15 13:45:00,
2013-02-15 08:50:00,40.0,36.2,30.08,WSW,255,1.0,3.0,86,0.00,,,0.00,1563.00,VWS V14.01,2013-02-15 13:50:00,
2013-02-15 08:55:00,40.6,36.5,30.08,WNW,287,1.0,3.0,85,0.00,,,0.00,1598.00,VWS V14.01,2013-02-15 13:55:00,
2013-02-15 09:00:00,41.3,36.8,30.08,WNW,287,0.0,0.0,84,0.00,,,0.00,1589.00,VWS V14.01,2013-02-15 14:00:00,
2013-02-15 09:05:00,42.0,36.6,30.08,WSW,255,2.0,2.0,81,0.00,,,0.00,1594.00,VWS V14.01,2013-02-15 14:05:00,
2013-02-15 09:10:00,42.8,37.1,30.08,WSW,252,3.0,3.0,80,0.00,,,0.00,1614.00,VWS V14.01,2013-02-15 14:10:00,
2013-02-15 09:15:00,43.6,37.2,30.08,SW,232,2.0,2.0,78,0.00,,,0.00,1622.00,VWS V14.01,2013-02-15 14:15:00,
2013-02-15 09:20:00,44.3,37.9,30.08,SW,236,1.0,2.0,78,0.00,,,0.00,1608.00,VWS V14.01,2013-02-15 14:20:00,
2013-02-15 09:25:00,45.0,37.9,30.08,WSW,250,0.0,2.0,76,0.00,,,0.00,1633.00,VWS V14.01,2013-02-15 14:25:00,
2013-02-15 09:30:00,45.7,38.2,30.08,WNW,301,2.0,2.0,75,0.00,,,0.00,1626.00,VWS V14.01,2013-02-15 14:30:00,
2013-02-15 09:35:00,46.3,38.1,30.08,WSW,238,0.0,0.0,73,0.00,,,0.00,1624.00,VWS V14.01,2013-02-15 14:35:00,
2013-02-15 09:40:00,46.8,38.6,30.08,WSW,238,1.0,1.0,73,0.00,,,0.00,1624.00,VWS V14.01,2013-02-15 14:40:00,
2013-02-15 09:45:00,47.5,38.6,30.08,WSW,254,3.0,3.0,71,0.00,,,0.00,1647.00,VWS V14.01,2013-02-15 14:45:00,
2013-02-15 09:50:00,48.1,38.4,30.08,SW,234,4.0,7.0,69,0.00,,,0.00,1652.00,VWS V14.01,2013-02-15 14:50:00,
2013-02-15 09:55:00,48.7,38.2,30.08,WSW,247,6.0,6.0,67,0.00,,,0.00,1659.00,VWS V14.01,2013-02-15 14:55:00,
2013-02-15 10:00:00,49.2,38.3,30.08,West,265,5.0,5.0,66,0.00,,,0.00,1661.00,VWS V14.01,2013-02-15 15:00:00,
2013-02-15 10:05:00,49.7,38.0,30.07,West,267,3.0,6.0,64,0.00,,,0.00,1659.00,VWS V14.01,2013-02-15 15:05:00,
2013-02-15 10:10:00,50.2,38.1,30.07,WSW,255,3.0,4.0,63,0.00,,,0.00,1663.00,VWS V14.01,2013-02-15 15:10:00,
2013-02-15 10:15:00,50.8,38.7,30.07,WSW,238,2.0,4.0,63,0.00,,,0.00,1670.00,VWS V14.01,2013-02-15 15:15:00,
2013-02-15 10:20:00,51.4,38.0,30.07,WSW,244,0.0,6.0,60,0.00,,,0.00,1673.00,VWS V14.01,2013-02-15 15:20:00,
2013-02-15 10:25:00,51.8,37.9,30.07,WSW,257,0.0,4.0,59,0.00,,,0.00,1679.00,VWS V14.01,2013-02-15 15:25:00,
2013-02-15 10:30:00,52.2,37.9,30.07,WNW,285,6.0,6.0,58,0.00,,,0.00,1686.00,VWS V14.01,2013-02-15 15:30:00,
2013-02-15 10:35:00,52.5,37.7,30.07,West,261,2.0,4.0,57,0.00,,,0.00,1689.00,VWS V14.01,2013-02-15 15:35:00,
2013-02-15 10:40:00,53.0,38.6,30.07,SW,231,1.0,1.0,58,0.00,,,0.00,1695.00,VWS V14.01,2013-02-15 15:40:00,
2013-02-15 10:45:00,53.5,37.8,30.07,WNW,294,3.0,7.0,55,0.00,,,0.00,1703.00,VWS V14.01,2013-02-15 15:45:00,
2013-02-15 10:50:00,53.9,39.5,30.07,WSW,254,0.0,1.0,58,0.00,,,0.00,1707.00,VWS V14.01,2013-02-15 15:50:00,
2013-02-15 10:55:00,54.6,39.2,30.06,West,268,3.0,3.0,56,0.00,,,0.00,1719.00,VWS V14.01,2013-02-15 15:55:00,
2013-02-15 11:00:00,55.3,38.5,30.06,WSW,254,2.0,3.0,53,0.00,,,0.00,1724.00,VWS V14.01,2013-02-15 16:00:00,
2013-02-15 11:05:00,55.7,38.8,30.06,South,178,1.0,3.0,53,0.00,,,0.00,1723.00,VWS V14.01,2013-02-15 16:05:00,
2013-02-15 11:10:00,56.0,38.2,30.06,South,171,1.0,1.0,51,0.00,,,0.00,1724.00,VWS V14.01,2013-02-15 16:10:00,
2013-02-15 11:15:00,56.6,38.7,30.06,SSE,154,0.0,1.0,51,0.00,,,0.00,1731.00,VWS V14.01,2013-02-15 16:15:00,
2013-02-15 11:20:00,56.9,37.4,30.06,SE,144,4.0,4.0,48,0.00,,,0.00,1733.00,VWS V14.01,2013-02-15 16:20:00,
2013-02-15 11:25:00,57.2,36.6,30.06,WSW,248,1.0,4.0,46,0.00,,,0.00,1731.00,VWS V14.01,2013-02-15 16:25:00,
2013-02-15 11:30:00,57.5,37.5,30.05,South,177,1.0,5.0,47,0.00,,,0.00,1731.00,VWS V14.01,2013-02-15 16:30:00,
2013-02-15 11:35:00,57.5,36.3,30.05,West,263,3.0,3.0,45,0.00,,,0.00,1726.00,VWS V14.01,2013-02-15 16:35:00,
2013-02-15 11:39:00,57.7,37.1,30.05,SW,233,1.0,1.0,46,0.00,,,0.00,1730.00,VWS V14.01,2013-02-15 16:39:00,
2013-02-15 11:44:00,57.8,34.9,30.05,WSW,250,6.0,6.0,42,0.00,,,0.00,1730.00,VWS V14.01,2013-02-15 16:44:00,
2013-02-15 11:49:00,57.8,35.5,30.05,WSW,255,0.0,2.0,43,0.00,,,0.00,1728.00,VWS V14.01,2013-02-15 16:49:00,
2013-02-15 11:54:00,58.1,35.2,30.04,WSW,241,3.0,7.0,42,0.00,,,0.00,1730.00,VWS V14.01,2013-02-15 16:54:00,
2013-02-15 12:00:00,58.4,35.4,30.04,West,260,3.0,3.0,42,0.00,,,0.00,1731.00,VWS V14.01,2013-02-15 17:00:00,
2013-02-15 12:04:00,58.7,35.1,30.04,SSW,199,0.0,2.0,41,0.00,,,0.00,1731.00,VWS V14.01,2013-02-15 17:04:00,
2013-02-15 12:09:00,59.1,35.4,30.03,SW,234,2.0,4.0,41,0.00,,,0.00,1733.00,VWS V14.01,2013-02-15 17:09:00,
2013-02-15 12:14:00,58.9,34.6,30.03,West,273,1.0,3.0,40,0.00,,,0.00,1728.00,VWS V14.01,2013-02-15 17:14:00,
2013-02-15 12:19:00,58.9,34.6,30.03,West,260,3.0,4.0,40,0.00,,,0.00,1726.00,VWS V14.01,2013-02-15 17:19:00,
2013-02-15 12:24:00,58.9,34.0,30.02,WSW,241,2.0,4.0,39,0.00,,,0.00,1731.00,VWS V14.01,2013-02-15 17:24:00,
2013-02-15 12:29:00,59.2,34.9,30.02,SSE,150,4.0,5.0,40,0.00,,,0.00,1733.00,VWS V14.01,2013-02-15 17:29:00,
2013-02-15 12:34:00,59.5,31.9,30.02,SSW,197,1.0,2.0,35,0.00,,,0.00,1735.00,VWS V14.01,2013-02-15 17:34:00,
2013-02-15 12:39:00,59.7,34.1,30.02,WSW,252,0.0,4.0,38,0.00,,,0.00,1738.00,VWS V14.01,2013-02-15 17:39:00,
2013-02-15 12:44:00,60.2,32.5,30.01,West,279,6.0,6.0,35,0.00,,,0.00,1740.00,VWS V14.01,2013-02-15 17:44:00,
2013-02-15 12:49:00,59.8,31.4,30.01,West,271,8.0,10.0,34,0.00,,,0.00,1737.00,VWS V14.01,2013-02-15 17:49:00,
2013-02-15 12:54:00,59.7,32.7,30.01,East,92,2.0,2.0,36,0.00,,,0.00,1730.00,VWS V14.01,2013-02-15 17:54:00,
2013-02-15 12:59:00,59.9,31.5,30.00,WSW,244,1.0,4.0,34,0.00,,,0.00,1733.00,VWS V14.01,2013-02-15 17:59:00,
2013-02-15 13:04:00,60.1,32.4,30.00,WNW,290,4.0,11.0,35,0.00,,,0.00,1735.00,VWS V14.01,2013-02-15 18:04:00,
2013-02-15 13:09:00,59.9,31.5,30.00,WSW,238,3.0,4.0,34,0.00,,,0.00,1731.00,VWS V14.01,2013-02-15 18:09:00,
2013-02-15 13:14:00,59.9,32.9,30.00,WSW,251,7.0,10.0,36,0.00,,,0.00,1728.00,VWS V14.01,2013-02-15 18:14:00,
2013-02-15 13:19:00,59.4,31.0,30.00,WNW,291,11.0,11.0,34,0.00,,,0.00,1721.00,VWS V14.01,2013-02-15 18:19:00,
2013-02-15 13:24:00,59.5,31.1,29.99,WNW,290,7.0,7.0,34,0.00,,,0.00,1723.00,VWS V14.01,2013-02-15 18:24:00,
2013-02-15 13:29:00,60.0,33.0,29.99,WSW,237,1.0,2.0,36,0.00,,,0.00,1726.00,VWS V14.01,2013-02-15 18:29:00,
2013-02-15 13:34:00,60.6,33.5,29.99,South,179,2.0,4.0,36,0.00,,,0.00,1735.00,VWS V14.01,2013-02-15 18:34:00,
2013-02-15 13:39:00,60.7,32.2,29.98,SW,234,0.0,1.0,34,0.00,,,0.00,1735.00,VWS V14.01,2013-02-15 18:39:00,
2013-02-15 13:44:00,60.8,33.7,29.98,SW,216,4.0,6.0,36,0.00,,,0.00,1735.00,VWS V14.01,2013-02-15 18:44:00,
2013-02-15 13:49:00,60.6,32.8,29.98,SE,126,0.0,4.0,35,0.00,,,0.00,1733.00,VWS V14.01,2013-02-15 18:49:00,
2013-02-15 13:54:00,60.4,33.3,29.98,West,275,4.0,5.0,36,0.00,,,0.00,1731.00,VWS V14.01,2013-02-15 18:54:00,
2013-02-15 13:59:00,60.4,32.7,29.98,WNW,288,5.0,6.0,35,0.00,,,0.00,1730.00,VWS V14.01,2013-02-15 18:59:00,
2013-02-15 14:04:00,60.5,32.7,29.98,West,263,3.0,8.0,35,0.00,,,0.00,1730.00,VWS V14.01,2013-02-15 19:04:00,
2013-02-15 14:09:00,60.5,31.3,29.97,WNW,291,3.0,9.0,33,0.00,,,0.00,1730.00,VWS V14.01,2013-02-15 19:09:00,
2013-02-15 14:14:00,60.3,31.8,29.97,West,269,5.0,8.0,34,0.00,,,0.00,1717.00,VWS V14.01,2013-02-15 19:14:00,
2013-02-15 14:19:00,60.0,32.3,29.96,WSW,257,5.0,7.0,35,0.00,,,0.00,1717.00,VWS V14.01,2013-02-15 19:19:00,
2013-02-15 14:24:00,60.0,33.0,29.96,SSE,158,1.0,3.0,36,0.00,,,0.00,1719.00,VWS V14.01,2013-02-15 19:24:00,
2013-02-15 14:29:00,60.2,31.8,29.96,West,272,2.0,9.0,34,0.00,,,0.00,1723.00,VWS V14.01,2013-02-15 19:29:00,
2013-02-15 14:34:00,60.4,31.2,29.96,West,278,6.0,9.0,33,0.00,,,0.00,1726.00,VWS V14.01,2013-02-15 19:34:00,
2013-02-15 14:39:00,60.3,31.1,29.95,West,259,0.0,3.0,33,0.00,,,0.00,1724.00,VWS V14.01,2013-02-15 19:39:00,
2013-02-15 14:44:00,60.5,32.0,29.95,SSE,168,0.0,6.0,34,0.00,,,0.00,1728.00,VWS V14.01,2013-02-15 19:44:00,
2013-02-15 14:49:00,60.6,30.6,29.95,West,271,9.0,9.0,32,0.00,,,0.00,1730.00,VWS V14.01,2013-02-15 19:49:00,
2013-02-15 14:55:00,60.6,30.6,29.95,West,267,2.0,4.0,32,0.00,,,0.00,1728.00,VWS V14.01,2013-02-15 19:55:00,
2013-02-15 15:00:00,60.5,30.5,29.95,WSW,248,3.0,6.0,32,0.00,,,0.00,1737.00,VWS V14.01,2013-02-15 20:00:00,
2013-02-15 15:05:00,60.2,31.8,29.94,SW,235,5.0,13.0,34,0.00,,,0.00,1723.00,VWS V14.01,2013-02-15 20:05:00,
2013-02-15 15:10:00,59.9,31.5,29.94,West,275,2.0,4.0,34,0.00,,,0.00,1723.00,VWS V14.01,2013-02-15 20:10:00,
2013-02-15 15:15:00,59.7,32.0,29.94,SSE,161,3.0,4.0,35,0.00,,,0.00,1702.00,VWS V14.01,2013-02-15 20:15:00,
2013-02-15 15:20:00,59.6,31.9,29.94,SSE,167,3.0,3.0,35,0.00,,,0.00,1714.00,VWS V14.01,2013-02-15 20:20:00,
2013-02-15 15:25:00,59.5,31.9,29.94,WSW,241,3.0,9.0,35,0.00,,,0.00,1702.00,VWS V14.01,2013-02-15 20:25:00,
2013-02-15 15:30:00,59.2,31.6,29.93,SW,234,1.0,5.0,35,0.00,,,0.00,1709.00,VWS V14.01,2013-02-15 20:30:00,
2013-02-15 15:35:00,59.4,32.5,29.93,SSW,207,2.0,6.0,36,0.00,,,0.00,1707.00,VWS V14.01,2013-02-15 20:35:00,
2013-02-15 15:40:00,59.7,32.7,29.93,WSW,251,9.0,10.0,36,0.00,,,0.00,1696.00,VWS V14.01,2013-02-15 20:40:00,
2013-02-15 15:45:00,59.9,31.5,29.93,West,262,6.0,7.0,34,0.00,,,0.00,1714.00,VWS V14.01,2013-02-15 20:45:00,
2013-02-15 15:50:00,59.8,32.1,29.93,SSW,200,1.0,3.0,35,0.00,,,0.00,1700.00,VWS V14.01,2013-02-15 20:50:00,
2013-02-15 15:55:00,60.0,31.6,29.92,West,265,2.0,5.0,34,0.00,,,0.00,1707.00,VWS V14.01,2013-02-15 20:55:00,
2013-02-15 16:00:00,60.3,32.6,29.93,SE,146,2.0,4.0,35,0.00,,,0.00,1716.00,VWS V14.01,2013-02-15 21:00:00,
2013-02-15 16:05:00,60.7,31.5,29.92,NW,321,1.0,3.0,33,0.00,,,0.00,1724.00,VWS V14.01,2013-02-15 21:05:00,
2013-02-15 16:10:00,60.7,30.7,29.92,West,266,1.0,9.0,32,0.00,,,0.00,1728.00,VWS V14.01,2013-02-15 21:10:00,
2013-02-15 16:15:00,60.6,31.4,29.92,WSW,255,3.0,3.0,33,0.00,,,0.00,1728.00,VWS V14.01,2013-02-15 21:15:00,
2013-02-15 16:20:00,60.5,31.3,29.92,SE,144,1.0,2.0,33,0.00,,,0.00,1728.00,VWS V14.01,2013-02-15 21:20:00,
2013-02-15 16:25:00,60.6,31.4,29.92,West,267,4.0,9.0,33,0.00,,,0.00,1730.00,VWS V14.01,2013-02-15 21:25:00,
2013-02-15 16:30:00,60.4,31.2,29.92,WNW,284,12.0,12.0,33,0.00,,,0.00,1726.00,VWS V14.01,2013-02-15 21:30:00,
2013-02-15 16:35:00,60.1,31.7,29.92,WSW,249,4.0,10.0,34,0.00,,,0.00,1724.00,VWS V14.01,2013-02-15 21:35:00,
2013-02-15 16:40:00,59.9,31.5,29.92,WNW,286,4.0,4.0,34,0.00,,,0.00,1719.00,VWS V14.01,2013-02-15 21:40:00,
2013-02-15 16:45:00,59.8,32.1,29.92,SW,230,4.0,11.0,35,0.00,,,0.00,1719.00,VWS V14.01,2013-02-15 21:45:00,
2013-02-15 16:50:00,59.5,31.9,29.92,WSW,258,5.0,7.0,35,0.00,,,0.00,1721.00,VWS V14.01,2013-02-15 21:50:00,
2013-02-15 16:55:00,59.3,31.7,29.92,SSW,193,1.0,9.0,35,0.00,,,0.00,1730.00,VWS V14.01,2013-02-15 21:55:00,
2013-02-15 17:00:00,58.8,31.2,29.91,SSW,197,1.0,8.0,35,0.00,,,0.00,1721.00,VWS V14.01,2013-02-15 22:00:00,
2013-02-15 17:05:00,58.3,31.5,29.91,SW,235,1.0,6.0,36,0.00,,,0.00,1717.00,VWS V14.01,2013-02-15 22:05:00,
2013-02-15 17:10:00,58.0,31.2,29.91,SW,234,2.0,3.0,36,0.00,,,0.00,1710.00,VWS V14.01,2013-02-15 22:10:00,
2013-02-15 17:15:00,57.9,31.8,29.91,WSW,238,0.0,1.0,37,0.00,,,0.00,1710.00,VWS V14.01,2013-02-15 22:15:00,
2013-02-15 17:20:00,57.7,31.0,29.91,West,266,1.0,3.0,36,0.00,,,0.00,1710.00,VWS V14.01,2013-02-15 22:20:00,
2013-02-15 17:25:00,57.4,31.4,29.91,WSW,248,0.0,2.0,37,0.00,,,0.00,1707.00,VWS V14.01,2013-02-15 22:25:00,
2013-02-15 17:30:00,57.1,31.8,29.91,SW,232,1.0,3.0,38,0.00,,,0.00,1710.00,VWS V14.01,2013-02-15 22:30:00,
2013-02-15 17:35:00,56.8,31.5,29.91,West,261,4.0,6.0,38,0.00,,,0.00,1710.00,VWS V14.01,2013-02-15 22:35:00,
2013-02-15 17:40:00,56.7,31.4,29.91,WSW,242,3.0,7.0,38,0.00,,,0.00,1710.00,VWS V14.01,2013-02-15 22:40:00,
2013-02-15 17:45:00,56.7,31.4,29.91,WSW,247,2.0,4.0,38,0.00,,,0.00,1712.00,VWS V14.01,2013-02-15 22:45:00,
2013-02-15 17:50:00,56.5,31.9,29.91,WSW,256,0.0,0.0,39,0.00,,,0.00,1714.00,VWS V14.01,2013-02-15 22:50:00,
2013-02-15 17:55:00,56.3,31.7,29.91,West,281,1.0,4.0,39,0.00,,,0.00,1716.00,VWS V14.01,2013-02-15 22:55:00,
2013-02-15 18:00:00,56.1,31.5,29.91,SW,221,0.0,0.0,39,0.00,,,0.00,1717.00,VWS V14.01,2013-02-15 23:00:00,
2013-02-15 18:05:00,55.8,31.2,29.91,SW,230,0.0,2.0,39,0.00,,,0.00,1721.00,VWS V14.01,2013-02-15 23:05:00,
2013-02-15 18:10:00,55.6,31.1,29.91,SW,234,0.0,0.0,39,0.00,,,0.00,1724.00,VWS V14.01,2013-02-15 23:10:00,
2013-02-15 18:15:00,55.4,31.5,29.92,WSW,247,0.0,0.0,40,0.00,,,0.00,1731.00,VWS V14.01,2013-02-15 23:15:00,
2013-02-15 18:20:00,55.1,31.2,29.92,WSW,247,0.0,0.0,40,0.00,,,0.00,1735.00,VWS V14.01,2013-02-15 23:20:00,
2013-02-15 18:25:00,54.7,30.9,29.92,WSW,247,0.0,0.0,40,0.00,,,0.00,1737.00,VWS V14.01,2013-02-15 23:25:00,
2013-02-15 18:30:00,54.4,31.2,29.92,SW,227,0.0,0.0,41,0.00,,,0.00,1740.00,VWS V14.01,2013-02-15 23:30:00,
2013-02-15 18:35:00,54.2,31.0,29.92,SW,227,0.0,0.0,41,0.00,,,0.00,1740.00,VWS V14.01,2013-02-15 23:35:00,
2013-02-15 18:40:00,53.8,31.3,29.92,SW,227,0.0,0.0,42,0.00,,,0.00,1738.00,VWS V14.01,2013-02-15 23:40:00,
2013-02-15 18:45:00,53.3,31.4,29.92,SW,227,0.0,0.0,43,0.00,,,0.00,1731.00,VWS V14.01,2013-02-15 23:45:00,
2013-02-15 18:50:00,52.9,31.6,29.92,SW,227,0.0,0.0,44,0.00,,,0.00,1731.00,VWS V14.01,2013-02-15 23:50:00,
2013-02-15 18:55:00,52.4,31.1,29.92,SW,227,0.0,0.0,44,0.00,,,0.00,1728.00,VWS V14.01,2013-02-15 23:55:00,
2013-02-15 19:00:00,51.9,31.2,29.92,SW,227,0.0,0.0,45,0.00,,,0.00,1726.00,VWS V14.01,2013-02-16 00:00:00,
2013-02-15 19:05:00,51.5,31.4,29.92,SW,227,0.0,0.0,46,0.00,,,0.00,1724.00,VWS V14.01,2013-02-16 00:05:00,
2013-02-15 19:10:00,51.0,31.5,29.92,SW,227,0.0,0.0,47,0.00,,,0.00,1721.00,VWS V14.01,2013-02-16 00:10:00,
2013-02-15 19:15:00,50.6,31.1,29.92,SW,227,0.0,0.0,47,0.00,,,0.00,1719.00,VWS V14.01,2013-02-16 00:15:00,
2013-02-15 19:20:00,50.2,31.8,29.92,SW,227,0.0,0.0,49,0.00,,,0.00,1716.00,VWS V14.01,2013-02-16 00:20:00,
2013-02-15 19:25:00,49.8,31.4,29.93,SW,227,0.0,0.0,49,0.00,,,0.00,1710.00,VWS V14.01,2013-02-16 00:25:00,
2013-02-15 19:30:00,49.4,31.6,29.92,SW,227,0.0,0.0,50,0.00,,,0.00,1709.00,VWS V14.01,2013-02-16 00:30:00,
2013-02-15 19:35:00,49.0,31.7,29.92,SW,227,0.0,0.0,51,0.00,,,0.00,1707.00,VWS V14.01,2013-02-16 00:35:00,
2013-02-15 19:40:00,48.7,31.9,29.92,SW,227,0.0,0.0,52,0.00,,,0.00,1707.00,VWS V14.01,2013-02-16 00:40:00,
2013-02-15 19:45:00,48.3,31.5,29.92,SW,227,0.0,0.0,52,0.00,,,0.00,1703.00,VWS V14.01,2013-02-16 00:45:00,
2013-02-15 19:50:00,48.0,31.7,29.92,SW,227,0.0,0.0,53,0.00,,,0.00,1702.00,VWS V14.01,2013-02-16 00:50:00,
2013-02-15 19:55:00,47.7,31.4,29.92,SW,227,0.0,0.0,53,0.00,,,0.00,1698.00,VWS V14.01,2013-02-16 00:55:00,
2013-02-15 20:00:00,47.4,31.1,29.92,SW,227,0.0,0.0,53,0.00,,,0.00,1696.00,VWS V14.01,2013-02-16 01:00:00,
2013-02-15 20:05:00,47.1,31.3,29.92,SW,227,0.0,0.0,54,0.00,,,0.00,1695.00,VWS V14.01,2013-02-16 01:05:00,
2013-02-15 20:10:00,47.0,31.2,29.93,SW,227,0.0,0.0,54,0.00,,,0.00,1693.00,VWS V14.01,2013-02-16 01:10:00,
2013-02-15 20:15:00,46.9,31.1,29.92,SW,227,0.0,0.0,54,0.00,,,0.00,1695.00,VWS V14.01,2013-02-16 01:15:00,
2013-02-15 20:20:00,46.9,31.6,29.93,SW,227,0.0,0.0,55,0.00,,,0.00,1696.00,VWS V14.01,2013-02-16 01:20:00,
2013-02-15 20:25:00,46.9,31.6,29.93,SW,227,0.0,0.0,55,0.00,,,0.00,1698.00,VWS V14.01,2013-02-16 01:25:00,
2013-02-15 20:30:00,47.0,31.7,29.93,SW,227,0.0,0.0,55,0.00,,,0.00,1700.00,VWS V14.01,2013-02-16 01:30:00,
2013-02-15 20:35:00,47.1,31.8,29.93,SW,227,0.0,0.0,55,0.00,,,0.00,1702.00,VWS V14.01,2013-02-16 01:35:00,
2013-02-15 20:40:00,47.3,31.5,29.93,SW,227,0.0,0.0,54,0.00,,,0.00,1705.00,VWS V14.01,2013-02-16 01:40:00,
2013-02-15 20:45:00,47.6,32.2,29.93,SW,227,0.0,0.0,55,0.00,,,0.00,1707.00,VWS V14.01,2013-02-16 01:45:00,
2013-02-15 20:50:00,47.8,32.4,29.93,SW,227,0.0,0.0,55,0.00,,,0.00,1709.00,VWS V14.01,2013-02-16 01:50:00,
2013-02-15 20:55:00,48.6,33.6,29.94,SW,227,0.0,0.0,56,0.00,,,0.00,1709.00,VWS V14.01,2013-02-16 01:55:00,
2013-02-15 21:00:00,48.9,33.0,29.94,SW,227,0.0,0.0,54,0.00,,,0.00,1712.00,VWS V14.01,2013-02-16 02:00:00,
2013-02-15 21:05:00,49.1,32.7,29.94,SW,227,0.0,0.0,53,0.00,,,0.00,1714.00,VWS V14.01,2013-02-16 02:05:00,
2013-02-15 21:10:00,49.2,32.8,29.93,SW,227,0.0,0.0,53,0.00,,,0.00,1712.00,VWS V14.01,2013-02-16 02:10:00,
2013-02-15 21:15:00,49.5,33.1,29.94,SW,227,0.0,1.0,53,0.00,,,0.00,1716.00,VWS V14.01,2013-02-16 02:15:00,
2013-02-15 21:20:00,50.1,33.7,29.94,NW,320,1.0,2.0,53,0.00,,,0.00,1717.00,VWS V14.01,2013-02-16 02:20:00,
2013-02-15 21:25:00,50.9,34.9,29.94,West,262,2.0,3.0,54,0.00,,,0.00,1721.00,VWS V14.01,2013-02-16 02:25:00,
2013-02-15 21:30:00,51.4,35.8,29.95,NW,316,1.0,1.0,55,0.00,,,0.00,1721.00,VWS V14.01,2013-02-16 02:30:00,
2013-02-15 21:35:00,51.5,36.3,29.95,NW,324,1.0,3.0,56,0.00,,,0.00,1724.00,VWS V14.01,2013-02-16 02:35:00,
2013-02-15 21:40:00,51.4,37.6,29.95,NNW,329,4.0,11.0,59,0.00,,,0.00,1723.00,VWS V14.01,2013-02-16 02:40:00,
2013-02-15 21:45:00,51.1,38.5,29.95,NW,315,6.0,6.0,62,0.00,,,0.00,1724.00,VWS V14.01,2013-02-16 02:45:00,
2013-02-15 21:50:00,50.7,39.0,29.96,NW,313,2.0,3.0,64,0.00,,,0.00,1723.00,VWS V14.01,2013-02-16 02:50:00,
2013-02-15 21:55:00,50.4,39.5,29.96,WNW,287,3.0,4.0,66,0.00,,,0.00,1721.00,VWS V14.01,2013-02-16 02:55:00,
2013-02-15 22:00:00,50.0,39.5,29.97,NW,306,1.0,5.0,67,0.00,,,0.00,1719.00,VWS V14.01,2013-02-16 03:00:00,
2013-02-15 22:05:00,49.7,39.2,29.97,WNW,299,2.0,4.0,67,0.00,,,0.00,1717.00,VWS V14.01,2013-02-16 03:05:00,
2013-02-15 22:10:00,49.2,39.1,29.97,WSW,242,1.0,3.0,68,0.00,,,0.00,1717.00,VWS V14.01,2013-02-16 03:10:00,
2013-02-15 22:15:00,48.8,38.7,29.97,NW,310,4.0,5.0,68,0.00,,,0.00,1716.00,VWS V14.01,2013-02-16 03:15:00,
2013-02-15 22:20:00,48.4,38.3,29.97,NW,309,3.0,4.0,68,0.00,,,0.00,1712.00,VWS V14.01,2013-02-16 03:20:00,
2013-02-15 22:25:00,48.0,38.0,29.98,NW,319,5.0,7.0,68,0.00,,,0.00,1709.00,VWS V14.01,2013-02-16 03:25:00,
2013-02-15 22:30:00,47.7,37.7,29.97,North,5,2.0,5.0,68,0.00,,,0.00,1709.00,VWS V14.01,2013-02-16 03:30:00,
2013-02-15 22:35:00,47.2,36.8,29.98,NNW,339,1.0,4.0,67,0.00,,,0.00,1707.00,VWS V14.01,2013-02-16 03:35:00,
2013-02-15 22:40:00,46.7,36.3,29.98,NNW,334,4.0,8.0,67,0.00,,,0.00,1703.00,VWS V14.01,2013-02-16 03:40:00,
2013-02-15 22:45:00,46.2,35.9,29.98,NW,320,3.0,3.0,67,0.00,,,0.00,1703.00,VWS V14.01,2013-02-16 03:45:00,
2013-02-15 22:50:00,45.9,35.6,29.98,NW,310,2.0,3.0,67,0.00,,,0.00,1700.00,VWS V14.01,2013-02-16 03:50:00,
2013-02-15 22:55:00,45.7,35.4,29.98,NW,325,3.0,3.0,67,0.00,,,0.00,1698.00,VWS V14.01,2013-02-16 03:55:00,
2013-02-15 23:00:00,45.6,35.3,29.98,NW,315,1.0,3.0,67,0.00,,,0.00,1696.00,VWS V14.01,2013-02-16 04:00:00,
2013-02-15 23:05:00,45.4,35.1,29.97,NNW,338,2.0,3.0,67,0.00,,,0.00,1695.00,VWS V14.01,2013-02-16 04:05:00,
2013-02-15 23:10:00,45.2,34.9,29.97,NW,311,3.0,3.0,67,0.00,,,0.00,1695.00,VWS V14.01,2013-02-16 04:10:00,
2013-02-15 23:15:00,45.0,34.7,29.97,NW,317,3.0,4.0,67,0.00,,,0.00,1693.00,VWS V14.01,2013-02-16 04:15:00,
2013-02-15 23:20:00,44.8,34.9,29.97,NW,317,2.0,3.0,68,0.00,,,0.00,1689.00,VWS V14.01,2013-02-16 04:20:00,
2013-02-15 23:25:00,44.6,34.7,29.97,NW,321,1.0,4.0,68,0.00,,,0.00,1689.00,VWS V14.01,2013-02-16 04:25:00,
2013-02-15 23:30:00,44.5,35.0,29.97,NW,313,5.0,5.0,69,0.00,,,0.00,1688.00,VWS V14.01,2013-02-16 04:30:00,
2013-02-15 23:35:00,44.3,34.8,29.96,NW,319,2.0,5.0,69,0.00,,,0.00,1686.00,VWS V14.01,2013-02-16 04:35:00,
2013-02-15 23:40:00,44.2,35.0,29.96,North,5,2.0,3.0,70,0.00,,,0.00,1682.00,VWS V14.01,2013-02-16 04:40:00,
2013-02-15 23:45:00,44.0,34.9,29.96,North,5,0.0,1.0,70,0.00,,,0.00,1682.00,VWS V14.01,2013-02-16 04:45:00,
2013-02-15 23:50:00,43.9,35.1,29.96,North,5,0.0,3.0,71,0.00,,,0.00,1679.00,VWS V14.01,2013-02-16 04:50:00,
2013-02-15 23:55:00,43.7,34.9,29.96,North,11,0.0,5.0,71,0.00,,,0.00,1679.00,VWS V14.01,2013-02-16 04:55:00,